ANA1896 RJTH-RJTT

Flight info

Callsign ANA1896
Flight time 0h 54m
Altitude 17000
Route TOPIT Y875 AROSA
Aircraft B738/M-SDE2E3FGHIRWXY/LB1

Departure

Time 2026-04-16 12:19
Airport Hachijojima Airport (RJTH)

Arrival

Time 2026-04-16 13:13
Airport Tokyo Haneda International Airport (RJTT)
Time Latitude Longitude Altitude Speed Heading
2026-04-16 12:17 33.11229 139.77683 301 ft 0 kts 65°
2026-04-16 12:18 33.11232 139.77692 301 ft 6 kts 64°
2026-04-16 12:18 33.11323 139.77974 297 ft 72 kts 69°
2026-04-16 12:18 33.11472 139.78454 297 ft 113 kts 71°
2026-04-16 12:19 33.11748 139.79461 642 ft 137 kts 68°
2026-04-16 12:19 33.12114 139.80650 1069 ft 159 kts 64°
2026-04-16 12:19 33.12816 139.82184 2191 ft 163 kts 43°
2026-04-16 12:19 33.13934 139.82758 2459 ft 191 kts 17°
2026-04-16 12:20 33.14827 139.82939 2760 ft 200 kts 13°
2026-04-16 12:20 33.16228 139.83166 3413 ft 204 kts 11°
2026-04-16 12:20 33.17682 139.83390 3932 ft 220 kts 10°
2026-04-16 12:20 33.19233 139.83627 4668 ft 228 kts
2026-04-16 12:21 33.20822 139.83869 5530 ft 231 kts
2026-04-16 12:21 33.22426 139.84114 6404 ft 233 kts
2026-04-16 12:21 33.24028 139.84360 7211 ft 236 kts
2026-04-16 12:21 33.25656 139.84612 8055 ft 236 kts
2026-04-16 12:22 33.27291 139.84865 8950 ft 236 kts 10°
2026-04-16 12:22 33.28927 139.85120 9788 ft 238 kts 10°
2026-04-16 12:22 33.30591 139.85380 10409 ft 248 kts 10°
2026-04-16 12:22 33.32389 139.85665 10578 ft 273 kts
2026-04-16 12:23 33.34349 139.85975 10744 ft 295 kts
2026-04-16 12:23 33.36468 139.86309 10899 ft 317 kts
2026-04-16 12:23 33.38715 139.86663 11160 ft 332 kts
2026-04-16 12:23 33.41005 139.87022 11669 ft 338 kts
2026-04-16 12:24 33.43350 139.87389 12302 ft 341 kts
2026-04-16 12:24 33.45716 139.87760 12948 ft 344 kts
2026-04-16 12:24 33.48108 139.88136 13565 ft 348 kts
2026-04-16 12:24 33.50532 139.88517 14147 ft 352 kts
2026-04-16 12:25 33.52981 139.88903 14671 ft 357 kts
2026-04-16 12:25 33.55461 139.89294 15231 ft 361 kts
2026-04-16 12:25 33.57925 139.89683 15794 ft 365 kts
2026-04-16 12:25 33.60468 139.90085 16331 ft 370 kts
2026-04-16 12:26 33.63038 139.90492 16844 ft 374 kts
2026-04-16 12:26 33.65646 139.90904 17092 ft 380 kts
2026-04-16 12:26 33.68308 139.91324 17111 ft 390 kts
2026-04-16 12:26 33.71021 139.91754 17117 ft 393 kts
2026-04-16 12:27 33.73691 139.92180 17112 ft 391 kts
2026-04-16 12:27 33.76386 139.92609 17116 ft 390 kts
2026-04-16 12:27 33.79087 139.93040 17118 ft 390 kts
2026-04-16 12:27 33.81778 139.93469 17122 ft 390 kts
2026-04-16 12:28 33.84459 139.93896 17112 ft 381 kts
2026-04-16 12:28 33.86995 139.94304 17096 ft 361 kts
2026-04-16 12:28 33.89430 139.94696 17088 ft 342 kts
2026-04-16 12:28 33.91744 139.95067 17057 ft 325 kts
2026-04-16 12:29 33.93942 139.95418 17038 ft 313 kts
2026-04-16 12:29 33.96120 139.95763 17055 ft 322 kts
2026-04-16 12:29 33.98360 139.96115 17082 ft 331 kts
2026-04-16 12:29 34.00657 139.96479 16654 ft 333 kts
2026-04-16 12:30 34.02990 139.96850 15897 ft 339 kts
2026-04-16 12:30 34.05310 139.97223 15509 ft 339 kts
2026-04-16 12:30 34.07670 139.97602 15386 ft 343 kts
2026-04-16 12:30 34.10041 139.97982 15266 ft 343 kts
2026-04-16 12:31 34.12405 139.98361 15170 ft 341 kts
2026-04-16 12:31 34.14764 139.98739 15141 ft 341 kts
2026-04-16 12:31 34.17085 139.99206 15124 ft 343 kts 14°
2026-04-16 12:31 34.19307 140.00275 15152 ft 345 kts 21°
2026-04-16 12:32 34.21458 140.01613 15147 ft 350 kts 26°
2026-04-16 12:32 34.23587 140.03110 15133 ft 357 kts 27°
2026-04-16 12:32 34.25721 140.04660 15138 ft 357 kts 27°
2026-04-16 12:32 34.27847 140.06215 15133 ft 356 kts 27°
2026-04-16 12:33 34.29965 140.07759 15137 ft 355 kts 27°
2026-04-16 12:33 34.32058 140.09271 15139 ft 354 kts 26°
2026-04-16 12:33 34.34298 140.10417 15141 ft 341 kts 15°
2026-04-16 12:33 34.36564 140.11224 15084 ft 340 kts 13°
2026-04-16 12:34 34.38866 140.11972 14908 ft 348 kts 13°
2026-04-16 12:34 34.41200 140.12708 14727 ft 345 kts 13°
2026-04-16 12:34 34.43523 140.13429 14546 ft 343 kts 13°
2026-04-16 12:34 34.45806 140.14119 14384 ft 342 kts 13°
2026-04-16 12:35 34.48158 140.14801 14205 ft 348 kts 13°
2026-04-16 12:35 34.50493 140.15468 14035 ft 340 kts 13°
2026-04-16 12:35 34.52790 140.16117 13793 ft 338 kts 13°
2026-04-16 12:35 34.55055 140.16749 13528 ft 338 kts 13°
2026-04-16 12:36 34.57333 140.17378 13231 ft 330 kts 13°
2026-04-16 12:36 34.59554 140.17982 12917 ft 324 kts 13°
2026-04-16 12:36 34.61746 140.18570 12611 ft 318 kts 13°
2026-04-16 12:36 34.63859 140.19127 12305 ft 309 kts 13°
2026-04-16 12:37 34.65937 140.19666 12005 ft 301 kts 13°
2026-04-16 12:37 34.67965 140.20184 11698 ft 294 kts 13°
2026-04-16 12:37 34.69956 140.20682 11394 ft 287 kts 13°
2026-04-16 12:37 34.71871 140.21153 11128 ft 281 kts 13°
2026-04-16 12:38 34.73763 140.21611 10876 ft 274 kts 13°
2026-04-16 12:38 34.75617 140.22053 10627 ft 268 kts 12°
2026-04-16 12:38 34.77430 140.22479 10379 ft 262 kts 12°
2026-04-16 12:38 34.79210 140.22891 10145 ft 257 kts 12°
2026-04-16 12:39 34.80928 140.23282 9907 ft 252 kts 12°
2026-04-16 12:39 34.82647 140.23669 9633 ft 248 kts 12°
2026-04-16 12:39 34.84328 140.24045 9369 ft 243 kts 12°
2026-04-16 12:39 34.85980 140.24411 9145 ft 239 kts 12°
2026-04-16 12:40 34.87577 140.24763 8961 ft 233 kts 12°
2026-04-16 12:40 34.89151 140.25106 8788 ft 227 kts 12°
2026-04-16 12:40 34.90695 140.25440 8624 ft 222 kts 12°
2026-04-16 12:40 34.92209 140.25766 8474 ft 219 kts 12°
2026-04-16 12:41 34.93694 140.26084 8329 ft 219 kts 12°
2026-04-16 12:41 34.95198 140.26407 8179 ft 219 kts 12°
2026-04-16 12:41 34.96704 140.26729 8060 ft 219 kts 12°
2026-04-16 12:41 34.98203 140.27049 7999 ft 220 kts 12°
2026-04-16 12:42 34.99722 140.27373 7971 ft 221 kts 12°
2026-04-16 12:42 35.01234 140.27675 7893 ft 219 kts
2026-04-16 12:42 35.02740 140.27322 7592 ft 230 kts 339°
2026-04-16 12:42 35.04096 140.26287 7387 ft 235 kts 333°
2026-04-16 12:43 35.05444 140.25140 7156 ft 237 kts 333°
2026-04-16 12:43 35.06789 140.23979 6943 ft 236 kts 332°
2026-04-16 12:43 35.08129 140.22819 6721 ft 234 kts 332°
2026-04-16 12:43 35.09446 140.21675 6529 ft 230 kts 332°
2026-04-16 12:44 35.10736 140.20550 6373 ft 225 kts 332°
2026-04-16 12:44 35.11995 140.19451 6197 ft 220 kts 330°
2026-04-16 12:44 35.13092 140.18172 6038 ft 220 kts 321°
2026-04-16 12:44 35.14128 140.16822 5870 ft 215 kts 321°
2026-04-16 12:45 35.15152 140.15503 5635 ft 214 kts 321°
2026-04-16 12:45 35.16189 140.14192 5338 ft 212 kts 321°
2026-04-16 12:45 35.17198 140.12910 5095 ft 211 kts 321°
2026-04-16 12:45 35.18217 140.11614 4811 ft 211 kts 321°
2026-04-16 12:46 35.19255 140.10351 4544 ft 210 kts 322°
2026-04-16 12:46 35.20271 140.09068 4254 ft 208 kts 321°
2026-04-16 12:46 35.21260 140.07809 4038 ft 200 kts 321°
2026-04-16 12:46 35.22180 140.06635 3979 ft 183 kts 321°
2026-04-16 12:47 35.23021 140.05568 3968 ft 173 kts 322°
2026-04-16 12:47 35.23852 140.04526 3975 ft 170 kts 323°
2026-04-16 12:47 35.24685 140.03483 3978 ft 171 kts 322°
2026-04-16 12:47 35.25522 140.02436 3971 ft 172 kts 323°
2026-04-16 12:48 35.26346 140.01402 3990 ft 166 kts 323°
2026-04-16 12:48 35.27155 140.00386 3990 ft 170 kts 322°
2026-04-16 12:48 35.27991 139.99339 4001 ft 174 kts 323°
2026-04-16 12:48 35.28840 139.98289 3997 ft 171 kts 326°
2026-04-16 12:49 35.29820 139.97543 4002 ft 163 kts 338°
2026-04-16 12:49 35.30822 139.96860 3994 ft 164 kts 337°
2026-04-16 12:49 35.31815 139.96167 3993 ft 164 kts 337°
2026-04-16 12:49 35.32817 139.95506 3996 ft 163 kts 339°
2026-04-16 12:50 35.33822 139.94846 3998 ft 164 kts 338°
2026-04-16 12:50 35.34810 139.94170 3994 ft 165 kts 336°
2026-04-16 12:50 35.35812 139.93467 3995 ft 166 kts 336°
2026-04-16 12:50 35.36817 139.92756 3984 ft 170 kts 336°
2026-04-16 12:51 35.37868 139.92009 3778 ft 176 kts 336°
2026-04-16 12:51 35.38919 139.91257 3549 ft 174 kts 336°
2026-04-16 12:51 35.39941 139.90525 3318 ft 169 kts 337°
2026-04-16 12:51 35.40944 139.89808 3100 ft 163 kts 338°
2026-04-16 12:52 35.41900 139.89124 2873 ft 155 kts 339°
2026-04-16 12:52 35.42814 139.88472 2668 ft 151 kts 341°
2026-04-16 12:52 35.43713 139.87833 2478 ft 151 kts 341°
2026-04-16 12:52 35.44636 139.87176 2269 ft 155 kts 340°
2026-04-16 12:53 35.45580 139.86504 2059 ft 158 kts 340°
2026-04-16 12:53 35.46533 139.85822 1839 ft 157 kts 340°
2026-04-16 12:53 35.47458 139.85160 1619 ft 154 kts 340°
2026-04-16 12:53 35.48378 139.84504 1409 ft 149 kts 339°
2026-04-16 12:54 35.49240 139.83888 1202 ft 137 kts 340°
2026-04-16 12:54 35.50037 139.83320 1043 ft 128 kts 339°
2026-04-16 12:54 35.50837 139.82752 843 ft 139 kts 338°
2026-04-16 12:54 35.51673 139.82154 659 ft 139 kts 337°
2026-04-16 12:55 35.52510 139.81557 468 ft 138 kts 336°
2026-04-16 12:55 35.53330 139.80971 283 ft 134 kts 337°
2026-04-16 12:55 35.54153 139.80387 143 ft 141 kts 337°
2026-04-16 12:55 35.55025 139.79775 551 ft 147 kts 336°
2026-04-16 12:56 35.55927 139.79122 969 ft 154 kts 336°
2026-04-16 12:56 35.56820 139.78464 1580 ft 148 kts 339°
2026-04-16 12:56 35.57746 139.77777 2131 ft 163 kts 335°
2026-04-16 12:56 35.58701 139.77026 2920 ft 160 kts 347°
2026-04-16 12:57 35.59768 139.77035 3676 ft 165 kts 21°
2026-04-16 12:57 35.60619 139.78061 4292 ft 185 kts 59°
2026-04-16 12:57 35.60851 139.79678 4832 ft 205 kts 81°
2026-04-16 12:57 35.60885 139.81550 5056 ft 231 kts 83°
2026-04-16 12:58 35.60923 139.83639 5270 ft 258 kts 83°
2026-04-16 12:58 35.60977 139.85931 5798 ft 271 kts 83°
2026-04-16 12:58 35.61031 139.88219 5976 ft 267 kts 83°
2026-04-16 12:58 35.61082 139.90463 5998 ft 263 kts 83°
2026-04-16 12:59 35.61130 139.92696 6001 ft 261 kts 83°
2026-04-16 12:59 35.61176 139.94937 6012 ft 261 kts 83°
2026-04-16 12:59 35.61222 139.97175 6018 ft 261 kts 83°
2026-04-16 13:00 35.61313 140.01602 5996 ft 259 kts 82°
2026-04-16 13:00 35.61287 140.03819 5983 ft 263 kts 95°
2026-04-16 13:00 35.60527 140.05899 6000 ft 276 kts 122°
2026-04-16 13:00 35.59179 140.07608 5999 ft 280 kts 131°
2026-04-16 13:01 35.57737 140.09232 5997 ft 281 kts 132°
2026-04-16 13:01 35.56278 140.10854 5998 ft 282 kts 132°
2026-04-16 13:01 35.54815 140.12469 5997 ft 284 kts 132°
2026-04-16 13:01 35.53339 140.14094 5997 ft 285 kts 132°
2026-04-16 13:02 35.51877 140.15705 5987 ft 286 kts 132°
2026-04-16 13:02 35.50391 140.17345 5991 ft 287 kts 132°
2026-04-16 13:02 35.48872 140.18952 5979 ft 291 kts 140°
2026-04-16 13:02 35.46977 140.19910 5986 ft 302 kts 167°
2026-04-16 13:03 35.44864 140.19826 5993 ft 306 kts 188°
2026-04-16 13:03 35.42797 140.19291 5980 ft 307 kts 191°
2026-04-16 13:03 35.40709 140.18751 5995 ft 306 kts 192°
2026-04-16 13:03 35.38627 140.18164 5987 ft 306 kts 194°
2026-04-16 13:04 35.36727 140.17031 5923 ft 302 kts 221°
2026-04-16 13:04 35.35153 140.15426 5760 ft 296 kts 221°
2026-04-16 13:04 35.33525 140.13882 5320 ft 295 kts 220°
2026-04-16 13:04 35.31871 140.12400 4945 ft 292 kts 219°
2026-04-16 13:05 35.30226 140.10950 4533 ft 290 kts 220°
2026-04-16 13:05 35.28903 140.09124 4157 ft 286 kts 246°
2026-04-16 13:05 35.27937 140.06990 4054 ft 287 kts 246°
2026-04-16 13:05 35.27103 140.04832 3977 ft 277 kts 263°
2026-04-16 13:06 35.27086 140.02572 3999 ft 259 kts 289°
2026-04-16 13:06 35.27438 140.01200 3988 ft 251 kts 301°
2026-04-16 13:06 35.28278 139.99338 4004 ft 249 kts 308°
2026-04-16 13:06 35.29436 139.97817 4006 ft 241 kts 330°
2026-04-16 13:07 35.30866 139.96749 3993 ft 238 kts 335°
2026-04-16 13:07 35.32263 139.95793 3988 ft 226 kts 336°
2026-04-16 13:07 35.33602 139.94872 3982 ft 214 kts 336°
2026-04-16 13:07 35.34869 139.94002 3971 ft 202 kts 337°
2026-04-16 13:08 35.36073 139.93226 3986 ft 190 kts 337°
2026-04-16 13:08 35.37225 139.92447 3909 ft 193 kts 336°
2026-04-16 13:08 35.38393 139.91628 3673 ft 191 kts 336°
2026-04-16 13:08 35.39528 139.90820 3426 ft 185 kts 336°
2026-04-16 13:09 35.40625 139.90035 3172 ft 179 kts 337°
2026-04-16 13:09 35.41680 139.89281 2924 ft 171 kts 338°
2026-04-16 13:09 35.42678 139.88568 2698 ft 165 kts 339°
2026-04-16 13:09 35.43652 139.87874 2474 ft 158 kts 340°
2026-04-16 13:10 35.44580 139.87211 2271 ft 150 kts 341°
2026-04-16 13:10 35.45490 139.86565 2070 ft 153 kts 341°
2026-04-16 13:10 35.46422 139.85901 1886 ft 152 kts 341°
2026-04-16 13:10 35.47304 139.85267 1660 ft 140 kts 341°
2026-04-16 13:11 35.48112 139.84693 1460 ft 131 kts 340°
2026-04-16 13:11 35.48874 139.84149 1288 ft 126 kts 340°
2026-04-16 13:11 35.49641 139.83603 1119 ft 129 kts 340°
2026-04-16 13:11 35.50421 139.83048 927 ft 130 kts 339°
2026-04-16 13:12 35.51211 139.82485 749 ft 131 kts 337°
2026-04-16 13:12 35.51996 139.81924 585 ft 131 kts 337°
2026-04-16 13:12 35.52785 139.81360 404 ft 131 kts 337°
2026-04-16 13:12 35.53561 139.80807 227 ft 129 kts 336°
2026-04-16 13:13 35.54331 139.80273 53 ft 127 kts 336°
2026-04-16 13:13 35.55011 139.79782 24 ft 76 kts 329°
2026-04-16 13:13 35.55312 139.79573 25 ft 31 kts 330°
2026-04-16 13:13 35.55440 139.79421 26 ft 25 kts 310°
2026-04-16 13:14 35.55488 139.79344 22 ft 10 kts 300°
2026-04-16 13:14 35.55499 139.79319 22 ft 0 kts 298°
2026-04-16 13:16 35.55502 139.79313 22 ft 5 kts 297°
2026-04-16 13:16 35.55530 139.79238 22 ft 11 kts 281°
2026-04-16 13:16 35.55506 139.79151 22 ft 11 kts 241°
2026-04-16 13:17 35.55471 139.79072 24 ft 10 kts 241°
2026-04-16 13:17 35.55434 139.78997 23 ft 10 kts 239°
2026-04-16 13:17 35.55391 139.78933 26 ft 10 kts 206°
2026-04-16 13:17 35.55327 139.78946 24 ft 9 kts 133°
2026-04-16 13:18 35.55347 139.79010 24 ft 9 kts 59°
2026-04-16 13:18 35.55356 139.79029 23 ft 0 kts 59°
2026-04-16 13:18 35.55357 139.79032 23 ft 0 kts 59°